Proserpine Hamilton Isla, Australia

8:10 AM AEST on January 17, 2017 (GMT +1000)
Hamilton Island

Weather History for YBHM - March, 2013

Change the Weather History Date:

Friday, March 1, 2013

  Actual Average Record
Temperature  
Mean Temperature 80 °F -  
Max Temperature 82 °F - - ()
Min Temperature 77 °F - - ()
Cooling Degree Days 14    
Growing Degree Days 30 (Base 50)    
Moisture  
Dew Point 78 °F    
Average Humidity 93    
Maximum Humidity 100    
Minimum Humidity 81    
Precipitation  
Precipitation 1.22 in - - ()
Sea Level Pressure  
Sea Level Pressure 29.71 in    
Wind  
Wind Speed 14 mph ()    
Max Wind Speed 25 mph    
Max Gust Speed -    
T = Trace of Precipitation, MM = Missing Value Source: Averaged Metar Reports

Daily Weather History Graph

Daily Weather History Graph

Search for Another Location

Airport or City:

Trip Planner

Search our weather history database for the weather conditions in past years. The results will help you decide how hot, cold, wet, or windy it might be!

Date:

Astronomy

Mar. 01, 2013 Rise Set
Actual Time 6:01 AM AEST 6:31 PM AEST
Civil Twilight 5:39 AM AEST 6:53 PM AEST
Nautical Twilight 5:13 AM AEST 7:19 PM AEST
Astronomical Twilight 4:46 AM AEST 7:46 PM AEST
Moon 8:42 PM AEST (3/1) 8:50 AM AEST (3/1)
Length of Visible Light 13h 14m
Length of Day
12h 29m
Waning Gibbous, 88% of the Moon is Illuminated
Mar 1
Waning Gibbous
Mar 5
Last Quarter
Mar 12
New
Mar 20
First Quarter
Mar 27
Full

Hourly Weather History & Observations

Time (AEST) Temp. Heat Index Dew Point Humidity Pressure Visibility Wind Dir Wind Speed Gust Speed Precip Events Conditions
12:00 AM 80 °F - 78 °F 90% 29.74 in - East 19.6 mph - -  
12:00 AM 80.6 °F 87.1 °F 77.0 °F 89% 29.74 in - ENE 19.6 mph - N/A   Unknown
1:00 AM 80.6 °F 88.1 °F 78.8 °F 94% 29.71 in - East 25.3 mph - N/A   Unknown
1:30 AM 80.6 °F 87.1 °F 77.0 °F 89% 29.71 in - East 18.4 mph - N/A   Unknown
2:00 AM 77.0 °F - 77.0 °F 100% 29.71 in - East 17.3 mph - N/A   Unknown
2:30 AM 78.8 °F - 78.8 °F 100% 29.71 in - ENE 15.0 mph - N/A   Unknown
3:00 AM 78 °F - - % 29.70 in - East 18.4 mph - -  
3:00 AM 78.8 °F - 78.8 °F 100% 29.71 in - East 18.4 mph - N/A   Unknown
3:30 AM 78.8 °F - 78.8 °F 100% 29.71 in - East 19.6 mph - N/A   Unknown
4:00 AM 78.8 °F - 77.0 °F 94% 29.71 in - East 20.7 mph - N/A   Unknown
4:30 AM 78.8 °F - 78.8 °F 100% 29.71 in - ESE 18.4 mph - N/A   Unknown
5:00 AM 78.8 °F - 78.8 °F 100% 29.71 in - East 13.8 mph - N/A   Unknown
5:30 AM 78.8 °F - 77.0 °F 94% 29.71 in - East 8.1 mph - N/A   Unknown
6:00 AM 79 °F - 79 °F 98% 29.73 in - ENE 9.2 mph - -  
6:00 AM 78.8 °F - 78.8 °F 100% 29.71 in - ENE 9.2 mph - N/A   Unknown
6:30 AM 78.8 °F - 78.8 °F 100% 29.74 in - ENE 17.3 mph - N/A   Unknown
7:00 AM 78.8 °F - 78.8 °F 100% 29.74 in - ENE 12.7 mph - N/A   Unknown
7:30 AM 78.8 °F - 78.8 °F 100% 29.74 in - ENE 10.4 mph - N/A   Unknown
8:00 AM 80.6 °F 88.1 °F 78.8 °F 94% 29.77 in - ENE 8.1 mph - N/A   Unknown
8:30 AM 82.4 °F 92.4 °F 78.8 °F 89% 29.77 in - East 10.4 mph - N/A   Unknown
9:00 AM 81 °F - 78 °F 90% 29.77 in - ENE 12.7 mph - -  
9:00 AM 80.6 °F 88.1 °F 78.8 °F 94% 29.77 in - ENE 12.7 mph - N/A   Unknown
9:30 AM 80.6 °F 87.1 °F 77.0 °F 89% 29.77 in - ENE 12.7 mph - N/A   Unknown
10:00 AM 78.8 °F - 78.8 °F 100% 29.77 in - NE 17.3 mph - N/A   Unknown
10:30 AM 80.6 °F 88.1 °F 78.8 °F 94% 29.77 in - ENE 15.0 mph - N/A   Unknown
11:00 AM 80.6 °F 88.1 °F 78.8 °F 94% 29.77 in - East 15.0 mph - N/A   Unknown
11:30 AM 82.4 °F 94.0 °F 80.6 °F 94% 29.74 in - East 13.8 mph - N/A   Unknown
12:00 PM 82 °F - 77 °F 81% 29.73 in - East 11.5 mph - -  
12:00 PM 82.4 °F 90.9 °F 77.0 °F 84% 29.74 in - East 11.5 mph - N/A   Unknown
12:30 PM 82.4 °F 92.4 °F 78.8 °F 89% 29.74 in - ENE 9.2 mph - N/A   Unknown
1:00 PM 82.4 °F 92.4 °F 78.8 °F 89% 29.71 in - East 11.5 mph - N/A   Unknown
1:30 PM 82.4 °F 90.9 °F 77.0 °F 84% 29.71 in - NE 13.8 mph - N/A   Unknown
2:00 PM 80.6 °F 87.1 °F 77.0 °F 89% 29.71 in - ENE 12.7 mph - N/A   Unknown
2:30 PM 80.6 °F 88.1 °F 78.8 °F 94% 29.68 in - East 11.5 mph - N/A   Unknown
3:00 PM 82 °F - 78 °F 86% 29.68 in - ENE 11.5 mph - -  
3:00 PM 82.4 °F 92.4 °F 78.8 °F 89% 29.68 in - ENE 11.5 mph - N/A   Unknown
3:30 PM 82.4 °F 90.9 °F 77.0 °F 84% 29.68 in - NE 11.5 mph - N/A   Unknown
4:00 PM 82.4 °F 92.4 °F 78.8 °F 89% 29.65 in - NE 10.4 mph - N/A   Unknown
4:30 PM 82.4 °F 92.4 °F 78.8 °F 89% 29.65 in - NE 15.0 mph - N/A   Unknown
5:00 PM 82.4 °F 92.4 °F 78.8 °F 89% 29.65 in - ENE 10.4 mph - N/A   Unknown
5:30 PM 82.4 °F 92.4 °F 78.8 °F 89% 29.65 in - NE 11.5 mph - N/A   Unknown
6:00 PM 81 °F - 78 °F 86% 29.66 in - NE 11.5 mph - -  
6:00 PM 80.6 °F 87.1 °F 77.0 °F 89% 29.65 in - NE 11.5 mph - N/A   Unknown
6:30 PM 80.6 °F 88.1 °F 78.8 °F 94% 29.68 in - ENE 10.4 mph - N/A   Unknown
7:00 PM 78.8 °F - 78.8 °F 100% 29.68 in - ENE 11.5 mph - N/A   Unknown
7:30 PM 80.6 °F 88.1 °F 78.8 °F 94% 29.68 in - NE 10.4 mph - N/A   Unknown
8:00 PM 80.6 °F 88.1 °F 78.8 °F 94% 29.71 in - NE 6.9 mph - N/A   Unknown
8:30 PM 80.6 °F 88.1 °F 78.8 °F 94% 29.68 in - NE 8.1 mph - N/A   Unknown
9:00 PM 80 °F - 79 °F 94% 29.71 in - NE 9.2 mph - -  
9:00 PM 80.6 °F 88.1 °F 78.8 °F 94% 29.71 in - NE 9.2 mph - N/A   Unknown
9:30 PM 78.8 °F - 77.0 °F 94% 29.71 in - NNE 15.0 mph - N/A   Unknown
10:00 PM 77.0 °F - 77.0 °F 100% 29.71 in - NNE 12.7 mph - N/A   Unknown
10:30 PM 77.0 °F - 77.0 °F 100% 29.71 in - NE 10.4 mph - N/A   Unknown
11:00 PM - - - N/A% 29.71 in - ENE 4.6 mph - N/A   Unknown
11:30 PM - - - N/A% 29.71 in - ENE 9.2 mph - N/A   Unknown